Abilene, TX

12:48 PM CDT on May 23, 2018 (GMT -0500)
Abilene Regional

Weather History for KABI - August, 2013

Change the Weather History Date:

Wednesday, August 7, 2013

  Actual Average Record
Temperature  
Mean Temperature 90 °F 84 °F  
Max Temperature 104 °F 95 °F 106 °F (2003)
Min Temperature 75 °F 73 °F 62 °F (1997)
Degree Days  
Heating Degree Days 0 0  
Month to date heating degree days 0 0  
Since 1 June heating degree days 0 1  
Since 1 July heating degree days 0 0  
Cooling Degree Days 25 19  
Month to date cooling degree days 166 133  
Year to date cooling degree days 1712 1526  
Since 1 June cooling degree days 1231 1129  
Growing Degree Days 40 (Base 50)    
Moisture  
Dew Point 62 °F    
Average Humidity 45    
Maximum Humidity 67    
Minimum Humidity 22    
Precipitation  
Precipitation 0.12 in 0.09 in 1.13 in (1966)
Month to date precipitation 0.12 0.55  
Year to date precipitation 15.91 14.92  
Sea Level Pressure  
Sea Level Pressure 29.79 in    
Wind  
Wind Speed 11 mph (SSW)    
Max Wind Speed 25 mph    
Max Gust Speed 35 mph    
Visibility 10 miles    
Events Rain , Thunderstorm    
T = Trace of Precipitation, MM = Missing Value Source: NWS Daily Summary

Daily Weather History Graph

Daily Weather History Graph

Search for Another Location

Airport or City:

Astronomy

Aug. 07, 2013 Rise Set
Actual Time 6:57 AM CDT 8:30 PM CDT
Civil Twilight 6:31 AM CDT 8:57 PM CDT
Nautical Twilight 5:59 AM CDT 9:28 PM CDT
Astronomical Twilight 5:26 AM CDT 10:01 PM CDT
Moon 7:41 AM CDT (8/7) 8:47 PM CDT (8/7)
Length of Visible Light 14h 26m
Length of Day
13h 33m
New Moon, 1% of the Moon is Illuminated
Aug 7
New Moon
Aug 14
First Quarter
Aug 20
Full
Aug 28
Last Quarter
Sep 5
New

Hourly Weather History & Observations

Time (CDT) Temp. Heat Index Dew Point Humidity Pressure Visibility Wind Dir Wind Speed Gust Speed Precip Events Conditions
12:52 AM 82.0 °F 82.4 °F 60.1 °F 47% 29.77 in 10.0 mi SSE 5.8 mph - N/A   Clear
1:52 AM 82.0 °F 82.4 °F 60.1 °F 47% 29.78 in 10.0 mi South 8.1 mph - N/A   Clear
2:52 AM 82.0 °F 82.4 °F 60.1 °F 47% 29.77 in 10.0 mi South 8.1 mph - N/A   Clear
3:52 AM 82.0 °F 82.4 °F 60.1 °F 47% 29.76 in 10.0 mi SSW 11.5 mph - N/A   Clear
4:52 AM 80.1 °F 80.9 °F 60.1 °F 50% 29.78 in 10.0 mi South 5.8 mph - N/A   Clear
5:52 AM 81.0 °F 81.3 °F 59.0 °F 47% 29.79 in 10.0 mi SSW 6.9 mph - N/A   Clear
6:52 AM 80.1 °F 80.9 °F 60.1 °F 50% 29.79 in 10.0 mi SSW 6.9 mph - N/A   Clear
7:52 AM 80.1 °F 81.2 °F 62.1 °F 54% 29.81 in 10.0 mi SSW 8.1 mph - N/A   Clear
8:52 AM 82.9 °F 84.4 °F 64.0 °F 53% 29.83 in 10.0 mi SSW 8.1 mph - N/A   Clear
9:52 AM 87.1 °F 88.3 °F 64.0 °F 46% 29.83 in 10.0 mi SW 16.1 mph - N/A   Clear
10:52 AM 91.0 °F 91.9 °F 63.0 °F 39% 29.83 in 10.0 mi SSW 15.0 mph - N/A   Clear
11:52 AM 93.9 °F 95.2 °F 63.0 °F 36% 29.83 in 10.0 mi SSW 13.8 mph - N/A   Clear
12:52 PM 97.0 °F 97.8 °F 62.1 °F 31% 29.81 in 10.0 mi SSW 12.7 mph - N/A   Clear
1:52 PM 100.0 °F 101.8 °F 62.1 °F 29% 29.79 in 10.0 mi SSW 12.7 mph 20.7 mph N/A   Clear
2:52 PM 102.0 °F 103.9 °F 62.1 °F 27% 29.77 in 10.0 mi South 13.8 mph 18.4 mph N/A   Clear
3:52 PM 102.9 °F 103.6 °F 60.1 °F 24% 29.74 in 10.0 mi South 13.8 mph 20.7 mph N/A   Clear
4:52 PM 104.0 °F 104.0 °F 57.9 °F 22% 29.72 in 10.0 mi SSE 13.8 mph 18.4 mph N/A   Clear
5:52 PM 102.9 °F 103.6 °F 60.1 °F 24% 29.70 in 10.0 mi SSE 18.4 mph 23.0 mph N/A   Partly Cloudy
6:52 PM 100.9 °F 101.6 °F 60.1 °F 26% 29.69 in 10.0 mi SSE 16.1 mph 26.5 mph N/A   Clear
7:52 PM 98.1 °F 97.7 °F 59.0 °F 27% 29.70 in 10.0 mi SSE 11.5 mph - N/A   Clear
8:52 PM 93.0 °F 93.0 °F 61.0 °F 34% 29.72 in 10.0 mi SSE 6.9 mph - N/A   Clear
9:19 PM 89.6 °F 89.5 °F 60.8 °F 38% 29.85 in 10.0 mi NW 16.1 mph 26.5 mph N/A   Scattered Clouds
9:40 PM 80.6 °F 82.7 °F 66.2 °F 61% 29.90 in 9.0 mi WNW 19.6 mph 34.5 mph 0.00 in Rain , Thunderstorm Light Thunderstorms and Rain
9:52 PM 78.1 °F - 66.9 °F 68% 29.83 in 10.0 mi WNW 20.7 mph 28.8 mph 0.00 in   Overcast
10:52 PM 77.0 °F - 66.9 °F 71% 29.88 in 6.0 mi NNW 4.6 mph - 0.01 in Thunderstorm Unknown
11:52 PM 75.9 °F - 71.1 °F 85% 29.87 in 10.0 mi NNE 3.5 mph - 0.11 in Rain , Thunderstorm Light Thunderstorms and Rain